Regional Weather Roundup
Issued by NWS

Home | Current Version | Previous Version | Text Only | Print | Product List | Glossary On
Versions: 1 2 3 4 5 6 7 8 9 10 11 12 13 14 15 16 17 18 19 20 21 22 23 24 25 26 27 28 29 30 31 32 33 34 35 36 37 38 39 40 41 42 43 44 45 46 47 48 49 50
000
ASUS43 KDMX 210607
RWRIA

WEATHER ROUNDUP FOR IOWA
NATIONAL WEATHER SERVICE DES MOINES IA
100 AM CDT THU AUG 21 2014

NOTE: "FAIR" INDICATES FEW OR NO CLOUDS BELOW 12,000 FEET WITH NO
SIGNIFICANT WEATHER AND/OR OBSTRUCTIONS TO VISIBILITY.

* - THESE STATIONS ARE NOT NWS STATIONS...THUS NOT UNDER NWS
QUALITY CONTROL.  THEY ALSO DO NOT REPORT WEATHER SUCH
AS PRECIPITATION OR FOG.

IAZ001>003-012>014-020>022-031>034-043>046-210700-
   NORTHWEST IOWA

CITY           SKY/WX    TMP DP  RH WIND       PRES   REMARKS
CARROLL *      PTCLDY    72  72 100 S3        29.82R FOG
CHEROKEE *       N/A     74  74  99 S6        29.78S
DENISON *      CLEAR     77  73  88 S15       29.79R
LE MARS *      CLEAR     77  73  88 S9G16     29.76S
ORANGE CITY *  CLEAR     75  72  88 SE7       29.76F
SHELDON *      CLEAR     73  73 100 SE12      29.76F
SIOUX CITY       N/A     77  73  87 SE12      29.75S
6HR MIN TEMP:  76; 6HR MAX TEMP:  83;

SPENCER          N/A     72  70  93 SE8       29.79F
6HR MIN TEMP:  72; 6HR MAX TEMP:  73; 6HR PCP: TRACE;

STORM LAKE *   PTCLDY    72  72 100 SE9       29.82S FOG
$$

IAZ055>058-069>071-079>083-090>094-210700-
   SOUTHWEST IOWA

CITY           SKY/WX    TMP DP  RH WIND       PRES   REMARKS
ATLANTIC *     MOCLDY    79  73  83 S8G14     29.82S HX  82
AUDUBON *      CLEAR     79  75  89 S7        29.85R HX  82
CLARINDA *     MOCLDY    79  73  83 S9        29.85S HX  82
COUNCIL BLFS *   N/A     77  75  94 S12       29.80R
CRESTON *      PTCLDY    77  73  88 S9        29.87S
HARLAN  *      MOCLDY    77  73  88 S10       29.85R
LAMONI           N/A     78  72  81 S10       29.88S HX  80
6HR MIN TEMP:  78; 6HR MAX TEMP:  84;

RED OAK *      MOCLDY    81  73  78 S12       29.82S HX  85
SHENANDOAH *   PTCLDY    79  73  83 S14       29.83R HX  82
$$

IAZ047>049-059>061-072>074-084-210700-
   CENTRAL IOWA

CITY           SKY/WX    TMP DP  RH WIND       PRES   REMARKS
AMES             N/A     70  70 100 CALM      29.85S FOG
6HR MIN TEMP:  70; 6HR MAX TEMP:  77;

ANKENY *       CLEAR     73  73 100 SE5       29.85S
CHARITON *     CLEAR     77  73  88 S9        29.87S
DES MOINES       N/A     77  73  87 SE5       29.84F
6HR MIN TEMP:  77; 6HR MAX TEMP:  83;

GRINNELL*        N/A     73  72  94 SE8       29.89S
KNOXVILLE *    CLEAR     77  72  83 SE6       29.86S
MARSHALLTOWN     N/A     71  70  96 SE8       29.87S
6HR MIN TEMP:  69; 6HR MAX TEMP:  75;

PELLA *          N/A     73  73  97 SE6       29.88F
PERRY *          N/A     73  72  94 SE5       29.84S
$$

IAZ004>006-015-016-023>025-035-036-210700-
   NORTH CENTRAL IOWA

CITY           SKY/WX    TMP DP  RH WIND       PRES   REMARKS
ALGONA *       CLEAR     70  70 100 SE12      29.83F
CLARION *      CLEAR     70  70 100 SE10      29.85F
ESTHERVILLE      N/A     69  68  96 SE9       29.81F
6HR MIN TEMP:  68; 6HR MAX TEMP:  73; 6HR PCP: TRACE;

FORT DODGE *     N/A     72  70  94 SE7       29.84S
MASON CITY       N/A     69  68  96 SE10      29.89S
6HR MIN TEMP:  68; 6HR MAX TEMP:  73; 6HR PCP: TRACE;

FOREST CITY *  PTCLDY    70  70 100 E9        29.86F FOG
IOWA FALLS *     N/A     68  67  96 SE5       29.88F
$$

IAZ007>011-017>019-026>030-037>042-050>054-066-210700-
   NORTHEAST IOWA

CITY           SKY/WX    TMP DP  RH WIND       PRES   REMARKS
CEDAR RAPIDS     N/A     69  69 100 E9        29.91S
6HR MIN TEMP:  67; 6HR MAX TEMP:  74;

CHARLES CITY * CLOUDY    70  66  88 SE9       29.91S
CLINTON *      CLOUDY    72  66  83 E6        29.97S
DECORAH *      CLOUDY    68  66  94 S5        29.92R
DUBUQUE        CLOUDY    70  66  87 SE8       29.95S
6HR MIN TEMP:  66; 6HR MAX TEMP:  73;

MONTICELLO *   MOCLDY    70  70 100 SE6       29.92F
OELWEIN *      CLOUDY    70  68  94 SE9       29.92S
WATERLOO         N/A     70  67  90 SE9       29.89S
6HR MIN TEMP:  67; 6HR MAX TEMP:  72;

$$

IAZ064-065-067-068-078-210700-
   EAST CENTRAL IOWA

CITY           SKY/WX    TMP DP  RH WIND       PRES   REMARKS
DAVENPORT        N/A     70  68  93 E6        29.94R
6HR MIN TEMP:  69; 6HR MAX TEMP:  75;

IOWA CITY        N/A     72  71  97 VRB3      29.92S
6HR MIN TEMP:  69; 6HR MAX TEMP:  76;

MT. PLEASANT *   N/A     72  71  96 SE3       29.91S FOG
MUSCATINE *    CLEAR     68  66  94 CALM      29.92R
QUAD CITIES      N/A     70  68  93 E7        29.93R
6HR MIN TEMP:  70; 6HR MAX TEMP:  76;

$$

IAZ062-063-075>077-085>089-095>099-210700-
   SOUTHEAST IOWA

CITY           SKY/WX    TMP DP  RH WIND       PRES   REMARKS
BURLINGTON       N/A     76  74  93 S9        29.92R
6HR MIN TEMP:  74; 6HR MAX TEMP:  80; 6HR PCP: TRACE;

FAIRFIELD *    MOCLDY    73  72  94 SE7       29.90S FOG
FORT MADISON * CLEAR     77  75  94 S7        29.92S
KEOKUK *       CLEAR     77  75  94 S10       29.91R
OSKALOOSA *      N/A     73  72  97 SE3       29.88F FOG
CENTERVILLE *  CLEAR     75  75 100 S6        29.91S
OTTUMWA          N/A     76  73  91 S6        29.88F
6HR MIN TEMP:  72; 6HR MAX TEMP:  81;

WASHINGTON *   CLEAR     73  73 100 SE6       29.90F FOG
$$

ABBREVIATIONS USED IN REMARKS
   TC - TEMPERATURES IN CELSIUS
  WCI - WIND CHILL INDEX
   HX - HEAT INDEX
  VSB - VISIBILITY
$$




USA.gov is the U.S. government's official web portal to all federal, state and local government web resources and services.